Current Weather Conditions: station 63113

sailwx.info

Wind from 190 at 17 knots

Wave height 1.5 meters (4 feet), 5 second period

Air temperature 11.4° C
Dewpoint 11.4° C

Last reported at 2019-Sep-21 16:00 UTC.
Time now 2019-Sep-21 17:44 UTC

Location: N 61°00' E 001°42'.
View on Google Maps.

See reports from other nearby stations

  
Tides and Currents Weather Stations Pressure Air Temp Water Temp Dewpoint Dewpoint Depression Visibility Wind Speed Wind Dir Waves Ship Positions
date/time (UTC)wind fromknots sea level pressurealtimeterstation pressurevisibilityair tempwater tempwave heightnotes
2019-Sep-21 16:00 190 17 11.4 1.5
2019-Sep-21 15:00 190 19 11.0 1.6
2019-Sep-21 14:00 190 15 11.1 1.5
2019-Sep-21 13:00 190 15 10.9 1.7
2019-Sep-21 12:00 190 15 10.8 1.6
2019-Sep-21 11:00 180 14 10.7 1.6
2019-Sep-21 10:00 180 13 10.7 1.7
2019-Sep-21 09:00 180 13 10.6 1.6
2019-Sep-21 08:00 190 12 10.6 1.5
2019-Sep-21 07:00 190 13 10.5 1.5
2019-Sep-21 06:00 190 14 10.5 1.4
2019-Sep-21 05:00 190 13 10.1 1.4
2019-Sep-21 04:00 190 14 9.8 1.4
2019-Sep-21 03:00 180 13 9.9 1.3
2019-Sep-21 02:00 180 13 9.8 1.4
2019-Sep-21 01:00 180 11 9.8 1.4
2019-Sep-21 00:00 190 13 9.8 1.5
2019-Sep-20 23:00 200 13 10.7 1.5
2019-Sep-20 22:00 210 13 11.5 1.5
2019-Sep-20 21:00 210 13 11.4 1.5
2019-Sep-20 20:00 220 13 11.7 1.6
2019-Sep-20 19:00 210 13 12.0 1.5
2019-Sep-20 18:00 210 11 11.9 1.5
2019-Sep-20 17:00 220 12 12.1 1.5
2019-Sep-20 16:00 220 11 12.2 1.4
2019-Sep-20 15:00 220 11 12.0 1.4
2019-Sep-20 14:00 230 14 12.0 1.4
2019-Sep-20 13:00 240 15 11.8 1.5
2019-Sep-20 12:00 230 13 11.9 1.5
2019-Sep-20 11:00 240 15 11.8 1.5
2019-Sep-20 10:00 240 12 11.6 1.6
2019-Sep-20 09:00 270 12 11.6 1.6
2019-Sep-20 08:00 260 14 11.6 1.6
2019-Sep-20 07:00 260 12 11.4 1.7
2019-Sep-20 06:00 270 13 11.2 1.7
2019-Sep-20 05:00 270 13 11.3 1.7
2019-Sep-20 04:00 270 13 11.6 1.6
2019-Sep-20 03:00 280 18 11.4 1.5
2019-Sep-20 02:00 270 14 11.4 1.5
2019-Sep-20 01:00 270 13 11.4 1.4
2019-Sep-20 00:00 270 13 11.3 1.4
2019-Sep-19 23:00 270 13 11.3 1.4
2019-Sep-19 22:00 270 13 11.3 1.4
2019-Sep-19 21:00 270 13 11.2 1.4
2019-Sep-19 20:00 270 15 11.5 1.3
2019-Sep-19 19:00 260 15 11.5
2019-Sep-19 18:00 260 13 11.4 1.2
2019-Sep-19 17:00 270 13 11.4 1.3